Location: ??????
(41.3164°N, 22.6615°E)
Time: 18:30:24
(UTC+00:00)

AO-7 - Visible Passes

Search period start: 29 June 2022 00:00
Search period end: 09 July 2022 00:00
Orbit: 1439 x 1459 km, 101.9° (Epoch: 28 June)

Date Brightness Start Highest point End Pass type
(mag) Time Alt. Az. Time Alt. Az. Time Alt. Az.
29 Jun ? 01:59:32 10° NE 02:06:50 33° E 02:14:05 10° SSE visible
30 Jun ? 01:03:23 10° ENE 01:05:56 12° E 01:08:29 10° ESE visible
01 Jul ? 01:52:41 10° NE 01:59:43 29° E 02:06:42 10° SSE visible
03 Jul ? 01:45:51 10° NE 01:52:35 26° E 01:59:15 10° SSE visible
05 Jul ? 01:39:04 10° NE 01:45:26 23° E 01:51:45 10° SE visible
07 Jul ? 01:32:20 10° NE 01:38:17 21° E 01:44:11 10° SE visible
08 Jul ? 02:23:48 10° NNE 02:31:46 46° E 02:39:41 10° S visible
